Tracking 19909 objects as of 23-Oct-2019
HD Live streaming from Space Station
objects crossing your sky now

COSMOS 767

Track COSMOS 767 now!
10-day predictions
COSMOS 767 is classified as:


NORAD ID: 8291
Int'l Code: 1975-086G
Perigee: 1,462.7 km
Apogee: 1,493.3 km
Inclination: 74.0 °
Period: 115.3 minutes
Semi major axis: 7848 km
RCS: 0.6985 m2 (medium)
Launch date: September 17, 1975
Source: Commonwealth of Independent States (former USSR) (CIS)
Launch site: PLESETSK MISSILE AND SPACE COMPLEX (PKMTR)
aabbcc
Your satellite tracking list
Your tracking list is empty




NASA's NSSDC Master Catalog

Two Line Element Set (TLE):
1  8291U 75086G   19295.86117705 -.00000016 +00000-0 +18839-5 0  9999
2  8291 074.0112 346.2329 0019533 165.2909 244.3235 12.48484005009771
Source of the keplerian elements: AFSPC